"read_dt","SO2 (ppb)","flags","PMT voltage (V)","lamp voltage (V)","lamp intensity (Hz)","internal temp (C)","react chamber temp (C)","sample flow (l/min)","pres (mmHg)","SO2 bkg (ppb)","SO2 coefficient"
2015-06-26 00:00:00,1654E-3,5C000000,-0724,0823,12283,025.9,045.4,0.477,729.2,01.19,0.508
2015-06-26 00:01:00,1610E-3,5C000000,-0724,0823,11183,025.8,045.3,0.476,729.1,01.19,0.508
2015-06-26 00:02:00,1650E-3,5C000000,-0724,0822,12196,025.8,045.4,0.477,729.2,01.19,0.508
2015-06-26 00:03:00,1723E-3,5C000000,-0724,0823,12343,025.9,045.4,0.477,729.1,01.19,0.508
2015-06-26 00:04:00,1518E-3,5C000000,-0724,0823,12278,025.9,045.4,0.476,729.1,01.19,0.508
2015-06-26 00:05:00,1556E-3,5C000000,-0724,0822,12225,025.9,045.4,0.477,729.0,01.19,0.508
2015-06-26 00:06:00,1711E-3,5C000000,-0724,0823,12299,025.9,045.4,0.477,729.1,01.19,0.508
2015-06-26 00:07:00,1661E-3,5C000000,-0724,0823,12157,025.9,045.4,0.476,729.1,01.19,0.508
2015-06-26 00:08:00,1708E-3,5C000000,-0724,0823,12281,025.9,045.4,0.477,729.1,01.19,0.508
2015-06-26 00:09:00,1719E-3,5C000000,-0724,0824,12452,025.8,045.4,0.477,729.0,01.19,0.508
2015-06-26 00:10:00,1679E-3,5C000000,-0724,0823,12248,025.8,045.4,0.476,729.0,01.19,0.508
2015-06-26 00:11:00,1708E-3,5C000000,-0724,0823,12174,025.8,045.4,0.477,729.0,01.19,0.508
2015-06-26 00:12:00,1585E-3,5C000000,-0724,0823,12250,025.9,045.4,0.476,729.0,01.19,0.508
2015-06-26 00:13:00,1711E-3,5C000000,-0724,0821,12246,025.8,045.4,0.476,729.0,01.19,0.508
2015-06-26 00:14:00,1788E-3,5C000000,-0724,0821,12243,025.8,045.4,0.477,729.0,01.19,0.508
2015-06-26 00:15:00,1733E-3,5C000000,-0724,0822,12228,025.8,045.4,0.476,729.0,01.19,0.508
2015-06-26 00:16:00,1619E-3,5C000000,-0724,0822,12212,025.8,045.4,0.477,729.0,01.19,0.508
2015-06-26 00:17:00,1629E-3,5C000000,-0724,0822,12252,025.9,045.4,0.477,729.1,01.19,0.508
2015-06-26 00:18:00,1778E-3,5C000000,-0724,0823,12127,025.8,045.4,0.476,729.0,01.19,0.508
2015-06-26 00:19:00,1662E-3,5C000000,-0724,0823,12379,025.8,045.4,0.477,729.0,01.19,0.508
2015-06-26 00:20:00,1612E-3,5C000000,-0724,0823,12285,025.8,045.4,0.477,729.0,01.19,0.508
2015-06-26 00:21:00,1752E-3,5C000000,-0724,0823,12341,025.8,045.4,0.476,728.9,01.19,0.508
2015-06-26 00:22:00,1694E-3,5C000000,-0724,0823,12272,025.8,045.4,0.477,728.9,01.19,0.508
2015-06-26 00:23:00,1685E-3,5C000000,-0724,0823,12149,025.8,045.4,0.476,728.9,01.19,0.508
2015-06-26 00:24:00,1606E-3,5C000000,-0724,0822,12220,025.8,045.4,0.477,728.8,01.19,0.508
2015-06-26 00:25:00,1705E-3,5C000000,-0724,0823,12210,025.8,045.4,0.477,728.9,01.19,0.508
2015-06-26 00:26:00,1693E-3,5C000000,-0724,0823,12259,025.9,045.4,0.476,728.9,01.19,0.508
2015-06-26 00:27:00,1756E-3,5C000000,-0724,0823,12358,025.8,045.4,0.477,729.0,01.19,0.508
2015-06-26 00:28:00,1600E-3,5C000000,-0724,0823,12304,025.8,045.4,0.477,729.0,01.19,0.508
2015-06-26 00:29:00,1744E-3,5C000000,-0724,0822,12218,025.8,045.4,0.476,729.0,01.19,0.508
2015-06-26 00:30:00,1762E-3,5C000000,-0724,0823,12149,025.8,045.4,0.477,729.0,01.19,0.508
2015-06-26 00:31:00,1863E-3,5C000000,-0724,0821,12143,025.9,045.4,0.476,729.0,01.19,0.508
2015-06-26 00:32:00,1733E-3,5C000000,-0724,0823,12391,025.8,045.4,0.477,729.0,01.19,0.508
2015-06-26 00:33:00,1673E-3,5C000000,-0724,0824,12434,025.8,045.4,0.477,729.0,01.19,0.508
2015-06-26 00:34:00,1837E-3,5C000000,-0724,0823,12294,025.8,045.4,0.476,729.0,01.19,0.508
2015-06-26 00:35:00,1704E-3,5C000000,-0724,0823,12364,025.8,045.4,0.477,729.0,01.19,0.508
2015-06-26 00:36:00,1714E-3,5C000000,-0724,0823,12289,025.8,045.4,0.477,729.0,01.19,0.508
2015-06-26 00:37:00,1700E-3,5C000000,-0724,0822,12207,025.9,045.4,0.476,728.9,01.19,0.508
2015-06-26 00:38:00,1737E-3,5C000000,-0724,0823,12263,025.8,045.4,0.477,729.0,01.19,0.508
2015-06-26 00:39:00,1654E-3,5C000000,-0724,0823,12254,025.8,045.4,0.476,729.0,01.19,0.508
2015-06-26 00:40:00,1704E-3,5C000000,-0724,0823,12299,025.8,045.4,0.477,729.0,01.19,0.508
2015-06-26 00:41:00,1719E-3,5C000000,-0724,0823,12312,025.8,045.4,0.477,729.0,01.19,0.508
2015-06-26 00:42:00,1551E-3,5C000000,-0724,0822,12215,025.8,045.4,0.476,728.9,01.19,0.508
2015-06-26 00:43:00,1730E-3,5C000000,-0724,0823,12432,025.8,045.4,0.477,728.9,01.19,0.508
2015-06-26 00:44:00,1629E-3,5C000000,-0724,0822,12259,025.8,045.4,0.476,728.8,01.19,0.508
2015-06-26 00:45:00,1718E-3,5C000000,-0724,0823,12203,025.8,045.4,0.477,728.8,01.19,0.508
2015-06-26 00:46:00,1537E-3,5C000000,-0724,0822,12267,025.8,045.4,0.477,728.7,01.19,0.508
2015-06-26 00:47:00,1744E-3,5C000000,-0724,0823,12287,025.8,045.4,0.476,728.7,01.19,0.508
2015-06-26 00:48:00,1627E-3,5C000000,-0724,0823,12325,025.8,045.4,0.477,728.8,01.19,0.508
2015-06-26 00:49:00,1711E-3,5C000000,-0724,0823,12290,025.8,045.4,0.476,728.8,01.19,0.508
2015-06-26 00:50:00,1520E-3,5C000000,-0724,0823,12384,025.8,045.4,0.477,728.9,01.19,0.508
2015-06-26 00:51:00,1689E-3,5C000000,-0724,0823,12254,025.8,045.4,0.477,728.8,01.19,0.508
2015-06-26 00:52:00,1630E-3,5C000000,-0724,0823,12323,025.8,045.4,0.476,728.9,01.19,0.508
2015-06-26 00:53:00,1632E-3,5C000000,-0724,0823,12215,025.8,045.4,0.477,728.9,01.19,0.508
2015-06-26 00:54:00,1711E-3,5C000000,-0724,0823,12214,025.8,045.4,0.477,728.9,01.19,0.508
2015-06-26 00:55:00,1814E-3,5C000000,-0724,0822,12179,025.8,045.4,0.476,728.8,01.19,0.508
2015-06-26 00:56:00,1585E-3,5C000000,-0724,0823,12228,025.8,045.4,0.477,728.8,01.19,0.508
2015-06-26 00:57:00,1549E-3,5C000000,-0724,0822,12229,025.8,045.4,0.476,728.7,01.19,0.508
2015-06-26 00:58:00,1770E-3,5C000000,-0724,0824,11985,025.8,045.4,0.477,728.8,01.19,0.508
2015-06-26 00:59:00,1711E-3,5C000000,-0724,0823,12264,025.8,045.4,0.476,728.8,01.19,0.508
2015-06-26 01:00:00,1627E-3,5C000000,-0724,0823,12274,025.8,045.4,0.476,728.8,01.19,0.508
2015-06-26 01:01:00,1672E-3,5C000000,-0724,0823,12217,025.8,045.4,0.477,728.7,01.19,0.508
2015-06-26 01:02:00,1709E-3,5C000000,-0724,0822,12200,025.8,045.4,0.476,728.8,01.19,0.508
2015-06-26 01:03:00,1800E-3,5C000000,-0724,0823,12275,025.8,045.4,0.477,728.7,01.19,0.508
2015-06-26 01:04:00,1637E-3,5C000000,-0724,0823,12193,025.8,045.4,0.477,728.7,01.19,0.508
2015-06-26 01:05:00,1723E-3,5C000000,-0724,0823,12300,025.8,045.4,0.476,728.7,01.19,0.508
2015-06-26 01:06:00,1658E-3,5C000000,-0724,0823,12251,025.8,045.4,0.477,728.7,01.19,0.508
2015-06-26 01:07:00,1567E-3,5C000000,-0724,0823,12333,025.8,045.4,0.476,728.7,01.19,0.508
2015-06-26 01:08:00,1651E-3,5C000000,-0724,0822,12243,025.8,045.4,0.477,728.7,01.19,0.508
2015-06-26 01:09:00,1775E-3,5C000000,-0724,0822,12402,025.8,045.4,0.476,728.7,01.19,0.508
2015-06-26 01:10:00,1584E-3,5C000000,-0724,0823,12213,025.8,045.4,0.476,728.7,01.19,0.508
2015-06-26 01:11:00,1533E-3,5C000000,-0724,0823,12368,025.8,045.4,0.477,728.6,01.19,0.508
2015-06-26 01:12:00,1699E-3,5C000000,-0724,0822,12429,025.8,045.4,0.476,728.7,01.19,0.508
2015-06-26 01:13:00,1775E-3,5C000000,-0724,0823,12195,025.8,045.4,0.477,728.7,01.19,0.508
2015-06-26 01:14:00,1794E-3,5C000000,-0724,0823,12391,025.8,045.4,0.476,728.6,01.19,0.508
2015-06-26 01:15:00,1565E-3,5C000000,-0724,0823,12271,025.8,045.4,0.477,728.6,01.19,0.508
2015-06-26 01:16:00,1638E-3,5C000000,-0724,0823,12387,025.8,045.4,0.476,728.6,01.19,0.508
2015-06-26 01:17:00,1614E-3,5C000000,-0724,0823,12246,025.8,045.4,0.476,728.6,01.19,0.508
2015-06-26 01:18:00,1640E-3,5C000000,-0724,0824,12274,025.8,045.4,0.477,728.5,01.19,0.508
2015-06-26 01:19:00,1662E-3,5C000000,-0724,0823,12226,025.8,045.4,0.476,728.5,01.19,0.508
2015-06-26 01:20:00,1641E-3,5C000000,-0724,0824,12228,025.8,045.4,0.477,728.4,01.19,0.508
2015-06-26 01:21:00,1663E-3,5C000000,-0724,0824,12298,025.8,045.4,0.476,728.4,01.19,0.508
2015-06-26 01:22:00,1693E-3,5C000000,-0724,0823,12327,025.8,045.4,0.477,728.4,01.19,0.508
2015-06-26 01:23:00,1571E-3,5C000000,-0724,0823,12222,025.8,045.4,0.477,728.4,01.19,0.508
2015-06-26 01:24:00,1631E-3,5C000000,-0724,0823,12169,025.8,045.4,0.476,728.3,01.19,0.508
2015-06-26 01:25:00,1532E-3,5C000000,-0724,0822,12101,025.8,045.4,0.477,728.4,01.19,0.508
2015-06-26 01:26:00,1721E-3,5C000000,-0724,0823,12367,025.8,045.4,0.476,728.3,01.19,0.508
2015-06-26 01:27:00,1748E-3,5C000000,-0724,0823,12289,025.8,045.4,0.477,728.3,01.19,0.508
2015-06-26 01:28:00,1728E-3,5C000000,-0724,0823,12252,025.8,045.4,0.476,728.2,01.19,0.508
2015-06-26 01:29:00,1778E-3,5C000000,-0724,0823,12309,025.8,045.4,0.477,728.2,01.19,0.508
2015-06-26 01:30:00,1765E-3,5C000000,-0724,0823,12148,025.8,045.4,0.476,728.2,01.19,0.508
2015-06-26 01:31:00,1744E-3,5C000000,-0724,0824,12297,025.8,045.4,0.476,728.2,01.19,0.508
2015-06-26 01:32:00,1669E-3,5C000000,-0724,0823,12364,025.8,045.4,0.477,728.1,01.19,0.508
2015-06-26 01:33:00,1615E-3,5C000000,-0724,0823,12261,025.8,045.4,0.476,728.1,01.19,0.508
2015-06-26 01:34:00,1558E-3,5C000000,-0724,0823,12113,025.8,045.4,0.477,728.2,01.19,0.508
2015-06-26 01:35:00,1650E-3,5C000000,-0724,0823,12360,025.8,045.4,0.476,728.1,01.19,0.508
2015-06-26 01:36:00,1778E-3,5C000000,-0724,0823,12242,025.8,045.4,0.477,728.1,01.19,0.508
2015-06-26 01:37:00,1750E-3,5C000000,-0724,0823,12468,025.7,045.4,0.476,728.1,01.19,0.508
2015-06-26 01:38:00,1542E-3,5C000000,-0724,0823,12304,025.7,045.4,0.477,728.1,01.19,0.508
2015-06-26 01:39:00,1633E-3,5C000000,-0724,0823,12336,025.8,045.4,0.476,728.0,01.19,0.508
2015-06-26 01:40:00,1624E-3,5C000000,-0724,0823,12276,025.8,045.4,0.476,728.0,01.19,0.508
2015-06-26 01:41:00,1665E-3,5C000000,-0724,0823,12261,025.7,045.4,0.477,728.1,01.19,0.508
2015-06-26 01:42:00,1622E-3,5C000000,-0724,0823,12444,025.7,045.4,0.476,728.1,01.19,0.508
2015-06-26 01:43:00,1672E-3,5C000000,-0724,0823,12239,025.8,045.4,0.477,728.0,01.19,0.508
2015-06-26 01:44:00,1577E-3,5C000000,-0724,0823,12423,025.8,045.4,0.476,728.1,01.19,0.508
2015-06-26 01:45:00,1673E-3,5C000000,-0724,0824,12346,025.8,045.4,0.477,728.1,01.19,0.508
2015-06-26 01:46:00,1689E-3,5C000000,-0724,0823,12132,025.8,045.4,0.476,728.0,01.19,0.508
2015-06-26 01:47:00,1529E-3,5C000000,-0724,0823,12236,025.7,045.4,0.477,728.0,01.19,0.508
2015-06-26 01:48:00,1738E-3,5C000000,-0724,0824,12208,025.7,045.4,0.476,728.0,01.19,0.508
2015-06-26 01:49:00,1634E-3,5C000000,-0724,0823,12289,025.7,045.4,0.477,728.1,01.19,0.508
2015-06-26 01:50:00,1584E-3,5C000000,-0724,0823,12367,025.7,045.4,0.476,728.0,01.19,0.508
2015-06-26 01:51:00,1769E-3,5C000000,-0724,0823,12161,025.7,045.4,0.476,728.0,01.19,0.508
2015-06-26 01:52:00,1709E-3,5C000000,-0724,0824,12373,025.7,045.4,0.476,728.0,01.19,0.508
2015-06-26 01:53:00,1617E-3,5C000000,-0724,0823,12317,025.7,045.4,0.476,728.0,01.19,0.508
2015-06-26 01:54:00,1678E-3,5C000000,-0724,0823,12225,025.7,045.4,0.477,728.0,01.19,0.508
2015-06-26 01:55:00,1513E-3,5C000000,-0724,0824,12376,025.7,045.4,0.476,728.0,01.19,0.508
2015-06-26 01:56:00,1707E-3,5C000000,-0724,0823,12131,025.7,045.4,0.477,727.9,01.19,0.508
2015-06-26 01:57:00,1700E-3,5C000000,-0724,0823,12317,025.7,045.4,0.476,728.0,01.19,0.508
2015-06-26 01:58:00,1626E-3,5C000000,-0724,0823,12276,025.7,045.4,0.477,727.9,01.19,0.508
2015-06-26 01:59:00,1800E-3,5C000000,-0724,0823,12217,025.8,045.4,0.476,727.9,01.19,0.508
2015-06-26 02:00:00,1639E-3,5C000000,-0724,0822,12191,025.7,045.4,0.476,727.9,01.19,0.508
2015-06-26 02:01:00,1751E-3,5C000000,-0724,0823,11989,025.7,045.4,0.476,727.8,01.19,0.508
2015-06-26 02:02:00,1641E-3,5C000000,-0724,0823,12180,025.7,045.4,0.476,727.8,01.19,0.508
2015-06-26 02:03:00,1574E-3,5C000000,-0724,0822,12202,025.7,045.4,0.476,727.8,01.19,0.508
2015-06-26 02:04:00,1663E-3,5C000000,-0724,0823,12242,025.7,045.4,0.476,727.8,01.19,0.508
2015-06-26 02:05:00,1598E-3,5C000000,-0724,0823,12059,025.7,045.4,0.476,727.8,01.19,0.508
2015-06-26 02:06:00,1830E-3,5C000000,-0724,0824,12244,025.7,045.4,0.476,727.7,01.19,0.508
2015-06-26 02:07:00,1604E-3,5C000000,-0724,0823,12181,025.7,045.4,0.477,727.7,01.19,0.508
2015-06-26 02:08:00,1646E-3,5C000000,-0724,0823,12245,025.7,045.4,0.476,727.7,01.19,0.508
2015-06-26 02:09:00,1723E-3,5C000000,-0724,0823,12368,025.7,045.4,0.477,727.6,01.19,0.508
2015-06-26 02:10:00,1632E-3,5C000000,-0724,0823,12363,025.7,045.4,0.476,727.6,01.19,0.508
2015-06-26 02:11:00,1768E-3,5C000000,-0724,0822,12158,025.7,045.4,0.477,727.7,01.19,0.508
2015-06-26 02:12:00,1739E-3,5C000000,-0724,0823,12373,025.7,045.4,0.476,727.6,01.19,0.508
2015-06-26 02:13:00,1665E-3,5C000000,-0724,0824,12268,025.7,045.4,0.476,727.6,01.19,0.508
2015-06-26 02:14:00,1684E-3,5C000000,-0724,0823,12173,025.7,045.4,0.476,727.7,01.19,0.508
2015-06-26 02:15:00,1810E-3,5C000000,-0724,0824,12249,025.7,045.4,0.476,727.6,01.19,0.508
2015-06-26 02:16:00,1791E-3,5C000000,-0724,0824,12376,025.7,045.4,0.476,727.6,01.19,0.508
2015-06-26 02:17:00,1781E-3,5C000000,-0724,0823,12337,025.7,045.4,0.476,727.6,01.19,0.508
2015-06-26 02:18:00,1683E-3,5C000000,-0724,0823,12256,025.7,045.4,0.476,727.6,01.19,0.508
2015-06-26 02:19:00,1668E-3,5C000000,-0724,0823,12180,025.7,045.4,0.476,727.6,01.19,0.508
2015-06-26 02:20:00,1700E-3,5C000000,-0724,0823,12226,025.7,045.4,0.477,727.7,01.19,0.508
2015-06-26 02:21:00,1507E-3,5C000000,-0724,0823,12295,025.7,045.4,0.476,727.7,01.19,0.508
2015-06-26 02:22:00,1747E-3,5C000000,-0724,0823,12184,025.7,045.4,0.476,727.6,01.19,0.508
2015-06-26 02:23:00,1602E-3,5C000000,-0724,0824,12226,025.7,045.4,0.476,727.6,01.19,0.508
2015-06-26 02:24:00,1632E-3,5C000000,-0724,0823,12284,025.7,045.4,0.476,727.6,01.19,0.508
2015-06-26 02:25:00,1754E-3,5C000000,-0724,0823,12088,025.7,045.4,0.476,727.5,01.19,0.508
2015-06-26 02:26:00,1586E-3,5C000000,-0724,0823,12171,025.7,045.4,0.476,727.5,01.19,0.508
2015-06-26 02:27:00,1685E-3,5C000000,-0724,0823,12191,025.7,045.4,0.476,727.6,01.19,0.508
2015-06-26 02:28:00,1706E-3,5C000000,-0724,0823,12286,025.7,045.4,0.476,727.6,01.19,0.508
2015-06-26 02:29:00,1726E-3,5C000000,-0724,0823,12288,025.7,045.4,0.476,727.5,01.19,0.508
2015-06-26 02:30:00,1685E-3,5C000000,-0724,0824,12101,025.7,045.4,0.476,727.5,01.19,0.508
2015-06-26 02:31:00,1721E-3,5C000000,-0724,0823,12237,025.7,045.4,0.477,727.5,01.19,0.508
2015-06-26 02:32:00,1559E-3,5C000000,-0724,0823,12195,025.7,045.4,0.476,727.5,01.19,0.508
2015-06-26 02:33:00,1653E-3,5C000000,-0724,0823,12337,025.7,045.4,0.477,727.5,01.19,0.508
2015-06-26 02:34:00,1678E-3,5C000000,-0724,0822,12225,025.7,045.4,0.476,727.5,01.19,0.508
2015-06-26 02:35:00,1655E-3,5C000000,-0724,0823,12248,025.7,045.4,0.476,727.4,01.19,0.508
2015-06-26 02:36:00,1534E-3,5C000000,-0724,0823,12290,025.7,045.4,0.476,727.4,01.19,0.508
2015-06-26 02:37:00,1695E-3,5C000000,-0724,0823,12296,025.7,045.4,0.476,727.3,01.19,0.508
2015-06-26 02:38:00,1801E-3,5C000000,-0724,0822,12398,025.7,045.4,0.476,727.4,01.19,0.508
2015-06-26 02:39:00,1668E-3,5C000000,-0724,0823,12188,025.7,045.4,0.476,727.4,01.19,0.508
2015-06-26 02:40:00,1659E-3,5C000000,-0724,0823,12162,025.7,045.4,0.476,727.4,01.19,0.508
2015-06-26 02:41:00,1720E-3,5C000000,-0724,0823,12199,025.7,045.4,0.476,727.5,01.19,0.508
2015-06-26 02:42:00,1618E-3,5C000000,-0724,0824,12259,025.7,045.4,0.476,727.5,01.19,0.508
2015-06-26 02:43:00,1733E-3,5C000000,-0724,0823,12291,025.7,045.4,0.476,727.5,01.19,0.508
2015-06-26 02:44:00,1691E-3,5C000000,-0724,0823,12269,025.7,045.4,0.476,727.5,01.19,0.508
2015-06-26 02:45:00,1697E-3,5C000000,-0724,0824,12146,025.7,045.4,0.476,727.4,01.19,0.508
2015-06-26 02:46:00,1622E-3,5C000000,-0724,0823,12321,025.7,045.4,0.476,727.4,01.19,0.508
2015-06-26 02:47:00,1637E-3,5C000000,-0724,0822,12271,025.7,045.4,0.476,727.4,01.19,0.508
2015-06-26 02:48:00,1654E-3,5C000000,-0724,0822,12174,025.7,045.4,0.476,727.4,01.19,0.508
2015-06-26 02:49:00,1724E-3,5C000000,-0724,0823,12200,025.7,045.4,0.476,727.4,01.19,0.508
2015-06-26 02:50:00,1612E-3,5C000000,-0724,0824,12270,025.7,045.4,0.476,727.4,01.19,0.508
2015-06-26 02:51:00,1671E-3,5C000000,-0724,0823,12295,025.7,045.4,0.476,727.3,01.19,0.508
2015-06-26 02:52:00,1690E-3,5C000000,-0724,0823,12389,025.7,045.4,0.476,727.3,01.19,0.508
2015-06-26 02:53:00,1572E-3,5C000000,-0724,0823,12192,025.7,045.4,0.476,727.3,01.19,0.508
2015-06-26 02:54:00,1738E-3,5C000000,-0724,0823,12082,025.7,045.4,0.476,727.3,01.19,0.508
2015-06-26 02:55:00,1630E-3,5C000000,-0724,0823,12288,025.7,045.4,0.476,727.3,01.19,0.508
2015-06-26 02:56:00,1610E-3,5C000000,-0724,0823,12111,025.7,045.4,0.476,727.3,01.19,0.508
2015-06-26 02:57:00,1526E-3,5C000000,-0724,0823,12180,025.7,045.4,0.476,727.3,01.19,0.508
2015-06-26 02:58:00,1626E-3,5C000000,-0724,0822,12275,025.6,045.4,0.476,727.3,01.19,0.508
2015-06-26 02:59:00,1754E-3,5C000000,-0724,0823,12167,025.7,045.4,0.476,727.2,01.19,0.508
2015-06-26 03:00:00,1747E-3,5C000000,-0724,0823,12280,025.7,045.4,0.476,727.2,01.19,0.508
2015-06-26 03:01:00,1743E-3,5C000000,-0724,0823,12275,025.7,045.4,0.476,727.1,01.19,0.508
2015-06-26 03:02:00,1635E-3,5C000000,-0724,0824,12181,025.6,045.4,0.476,727.1,01.19,0.508
2015-06-26 03:03:00,1664E-3,5C000000,-0724,0823,12339,025.7,045.4,0.476,727.2,01.19,0.508
2015-06-26 03:04:00,1696E-3,5C000000,-0724,0823,12313,025.7,045.4,0.476,727.1,01.19,0.508
2015-06-26 03:05:00,1631E-3,5C000000,-0724,0823,12340,025.7,045.4,0.476,727.1,01.19,0.508
2015-06-26 03:06:00,1740E-3,5C000000,-0724,0822,12314,025.6,045.4,0.476,727.1,01.19,0.508
2015-06-26 03:07:00,1737E-3,5C000000,-0724,0823,12322,025.6,045.4,0.476,727.1,01.19,0.508
2015-06-26 03:08:00,1669E-3,5C000000,-0724,0823,12411,025.6,045.4,0.476,727.1,01.19,0.508
2015-06-26 03:09:00,1694E-3,5C000000,-0724,0823,12238,025.7,045.4,0.477,727.1,01.19,0.508
2015-06-26 03:10:00,1600E-3,5C000000,-0724,0823,12291,025.7,045.4,0.476,727.1,01.19,0.508
2015-06-26 03:11:00,1667E-3,5C000000,-0724,0822,12200,025.6,045.4,0.476,727.0,01.19,0.508
2015-06-26 03:12:00,1521E-3,5C000000,-0724,0822,12224,025.7,045.4,0.476,727.1,01.19,0.508
2015-06-26 03:13:00,1725E-3,5C000000,-0724,0824,12348,025.6,045.4,0.476,727.1,01.19,0.508
2015-06-26 03:14:00,1585E-3,5C000000,-0724,0823,12278,025.6,045.4,0.476,727.1,01.19,0.508
2015-06-26 03:15:00,1686E-3,5C000000,-0724,0823,12151,025.6,045.4,0.476,727.0,01.19,0.508
2015-06-26 03:16:00,1687E-3,5C000000,-0724,0823,12229,025.6,045.4,0.476,726.8,01.19,0.508
2015-06-26 03:17:00,1701E-3,5C000000,-0724,0823,12151,025.7,045.4,0.476,726.8,01.19,0.508
2015-06-26 03:18:00,1745E-3,5C000000,-0724,0823,12278,025.7,045.4,0.476,726.8,01.19,0.508
2015-06-26 03:19:00,1680E-3,5C000000,-0724,0824,12236,025.6,045.4,0.476,726.8,01.19,0.508
2015-06-26 03:20:00,1683E-3,5C000000,-0724,0823,12318,025.6,045.4,0.476,726.8,01.19,0.508
2015-06-26 03:21:00,1748E-3,5C000000,-0724,0824,12280,025.6,045.4,0.476,726.8,01.19,0.508
2015-06-26 03:22:00,1767E-3,5C000000,-0724,0823,12279,025.6,045.4,0.476,726.8,01.19,0.508
2015-06-26 03:23:00,1649E-3,5C000000,-0724,0823,12205,025.7,045.4,0.476,726.7,01.19,0.508
2015-06-26 03:24:00,1733E-3,5C000000,-0724,0823,12166,025.6,045.4,0.476,726.7,01.19,0.508
2015-06-26 03:25:00,1668E-3,5C000000,-0724,0824,12326,025.6,045.4,0.476,726.7,01.19,0.508
2015-06-26 03:26:00,1715E-3,5C000000,-0724,0824,12215,025.7,045.4,0.476,726.7,01.19,0.508
2015-06-26 03:27:00,1690E-3,5C000000,-0724,0822,12313,025.7,045.4,0.476,726.6,01.19,0.508
2015-06-26 03:28:00,1667E-3,5C000000,-0724,0823,12318,025.6,045.4,0.476,726.7,01.19,0.508
2015-06-26 03:29:00,1722E-3,5C000000,-0724,0823,12250,025.6,045.4,0.476,726.5,01.19,0.508
2015-06-26 03:30:00,1722E-3,5C000000,-0724,0823,12177,025.6,045.4,0.476,726.6,01.19,0.508
2015-06-26 03:31:00,1660E-3,5C000000,-0724,0823,12299,025.7,045.4,0.476,726.5,01.19,0.508
2015-06-26 03:32:00,1620E-3,5C000000,-0724,0823,12276,025.6,045.4,0.476,726.6,01.19,0.508
2015-06-26 03:33:00,1805E-3,5C000000,-0724,0824,12015,025.6,045.4,0.476,726.6,01.19,0.508
2015-06-26 03:34:00,1585E-3,5C000000,-0724,0823,12190,025.7,045.4,0.476,726.6,01.19,0.508
2015-06-26 03:35:00,1555E-3,5C000000,-0724,0823,12147,025.6,045.4,0.476,726.6,01.19,0.508
2015-06-26 03:36:00,1787E-3,5C000000,-0724,0823,12355,025.6,045.4,0.476,726.7,01.19,0.508
2015-06-26 03:37:00,1724E-3,5C000000,-0724,0823,12149,025.6,045.4,0.476,726.7,01.19,0.508
2015-06-26 03:38:00,1693E-3,5C000000,-0724,0823,12195,025.6,045.4,0.476,726.6,01.19,0.508
2015-06-26 03:39:00,1794E-3,5C000000,-0724,0822,12211,025.6,045.4,0.476,726.5,01.19,0.508
2015-06-26 03:40:00,1700E-3,5C000000,-0724,0824,12345,025.6,045.4,0.476,726.7,01.19,0.508
2015-06-26 03:41:00,1824E-3,5C000000,-0724,0824,12224,025.6,045.4,0.476,726.7,01.19,0.508
2015-06-26 03:42:00,1529E-3,5C000000,-0724,0823,12224,025.6,045.4,0.476,726.8,01.19,0.508
2015-06-26 03:43:00,1739E-3,5C000000,-0724,0823,12249,025.6,045.4,0.476,726.8,01.19,0.508
2015-06-26 03:44:00,1604E-3,5C000000,-0724,0823,12294,025.6,045.4,0.476,726.8,01.19,0.508
2015-06-26 03:45:00,1627E-3,5C000000,-0724,0823,12246,025.7,045.4,0.476,726.8,01.19,0.508
2015-06-26 03:46:00,1719E-3,5C000000,-0724,0824,12172,025.7,045.4,0.476,726.8,01.19,0.508
2015-06-26 03:47:00,1650E-3,5C000000,-0724,0823,12223,025.6,045.4,0.476,726.8,01.19,0.508
2015-06-26 03:48:00,1702E-3,5C000000,-0724,0824,12349,025.6,045.4,0.476,726.8,01.19,0.508
2015-06-26 03:49:00,1701E-3,5C000000,-0724,0823,12287,025.6,045.4,0.476,726.8,01.19,0.508
2015-06-26 03:50:00,1647E-3,5C000000,-0724,0823,12259,025.6,045.4,0.476,726.9,01.19,0.508
2015-06-26 03:51:00,1432E-3,5C000000,-0724,0823,12293,025.6,045.4,0.476,726.9,01.19,0.508
2015-06-26 03:52:00,1712E-3,5C000000,-0724,0823,12271,025.6,045.4,0.476,726.9,01.19,0.508
2015-06-26 03:53:00,1601E-3,5C000000,-0724,0822,12252,025.6,045.4,0.476,727.0,01.19,0.508
2015-06-26 03:54:00,1715E-3,5C000000,-0724,0822,12061,025.7,045.4,0.476,726.9,01.19,0.508
2015-06-26 03:55:00,1633E-3,5C000000,-0724,0822,12097,025.6,045.4,0.476,727.0,01.19,0.508
2015-06-26 03:56:00,1692E-3,5C000000,-0724,0824,12195,025.6,045.4,0.476,727.0,01.19,0.508
2015-06-26 03:57:00,1823E-3,5C000000,-0724,0822,12293,025.6,045.4,0.476,727.0,01.19,0.508
2015-06-26 03:58:00,1701E-3,5C000000,-0724,0823,12404,025.7,045.4,0.476,727.1,01.19,0.508
2015-06-26 03:59:00,1641E-3,5C000000,-0724,0822,12295,025.6,045.4,0.476,727.0,01.19,0.508
2015-06-26 04:00:00,1653E-3,5C000000,-0724,0823,12306,025.6,045.4,0.476,727.1,01.19,0.508
2015-06-26 04:01:00,1720E-3,5C000000,-0724,0823,12164,025.6,045.4,0.476,727.1,01.19,0.508
2015-06-26 04:02:00,1704E-3,5C000000,-0724,0823,12404,025.6,045.4,0.476,727.1,01.19,0.508
2015-06-26 04:03:00,1713E-3,5C000000,-0724,0823,12312,025.6,045.4,0.476,727.1,01.19,0.508
2015-06-26 04:04:00,1748E-3,5C000000,-0724,0824,12033,025.6,045.4,0.476,727.1,01.19,0.508
2015-06-26 04:05:00,1749E-3,5C000000,-0724,0824,12234,025.6,045.4,0.476,727.1,01.19,0.508
2015-06-26 04:06:00,1633E-3,5C000000,-0724,0823,12251,025.6,045.4,0.476,727.1,01.19,0.508
2015-06-26 04:07:00,1617E-3,5C000000,-0724,0823,12182,025.6,045.4,0.476,727.0,01.19,0.508
2015-06-26 04:08:00,1719E-3,5C000000,-0724,0824,12232,025.6,045.4,0.476,727.0,01.19,0.508
2015-06-26 04:09:00,1715E-3,5C000000,-0724,0824,12305,025.6,045.4,0.476,727.0,01.19,0.508
2015-06-26 04:10:00,1687E-3,5C000000,-0724,0823,12209,025.6,045.4,0.476,727.0,01.19,0.508
2015-06-26 04:11:00,1733E-3,5C000000,-0724,0823,12192,025.6,045.4,0.476,726.9,01.19,0.508
2015-06-26 04:12:00,1647E-3,5C000000,-0724,0823,12202,025.6,045.4,0.476,726.9,01.19,0.508
2015-06-26 04:13:00,1735E-3,5C000000,-0724,0823,12387,025.6,045.4,0.476,726.9,01.19,0.508
2015-06-26 04:14:00,1663E-3,5C000000,-0724,0823,12184,025.6,045.4,0.476,726.8,01.19,0.508
2015-06-26 04:15:00,1758E-3,5C000000,-0724,0824,12199,025.6,045.4,0.476,726.8,01.19,0.508
2015-06-26 04:16:00,1565E-3,5C000000,-0724,0823,12166,025.6,045.4,0.476,726.7,01.19,0.508
2015-06-26 04:17:00,1730E-3,5C000000,-0724,0824,12319,025.6,045.4,0.476,726.8,01.19,0.508
2015-06-26 04:18:00,1545E-3,5C000000,-0724,0824,12133,025.6,045.4,0.476,726.7,01.19,0.508
2015-06-26 04:19:00,1570E-3,5C000000,-0724,0823,12189,025.6,045.4,0.476,726.8,01.19,0.508
2015-06-26 04:20:00,1599E-3,5C000000,-0724,0824,12315,025.6,045.4,0.476,726.8,01.19,0.508